Dean International
Flight School

Career Spotlight

Mika

Mika

Congratulations to Mika from Khazakstan. She recently sent us this photo of her flying an Airbus airliner.

More...
Mika's Success Story
close

Congratulations to Mika from Khazakstan. She recently sent us this photo of her flying an Airbus airliner.

Mario

Mario

My dreams could not have been realized if I wouldn't have been part of the Dean International family.

More...
Mario's Success Story
close

"My dreams could not have been realized if I wouldn't have been part of the Dean International family. Thank you Robert, thanks to all my co-workers, and thanks to all of my students!"

Fernando

Fernando

I am now working as a First Officer at TACA and am enjoying every moment of it.

More...
Fernando's Success Story
close

"Will never forget my time of flight training at Dean International. I am now working as a First Officer at TACA and am enjoying every moment of it."

Alvaro

Alvaro

Because of the flight time I was able to built while instructing, I got the experience needed to apply to an airline in Colombia.

More...
Alvaro's Success Story
close

Dean alumnus Alvaro Londoño currently flies with Tampa Cargo. He says of his experience at Dean: "I want to take this opportunity to thank you for giving me the chance to build my experience and expand my knowledge in Dean International. Because of the flight time I was able to built flight instructing, I got the experience needed to apply to an airline in Colombia."

Ralph

Ralph

Every Aruban student of Dean International has made it into Tiara Air Aruba, that is very nice.

More...
Ralph's Success Story
close

"Next to me is my Co-Pilot, Elison. This picture was taken on our first flight together, which was almost exactly 5 years after I finished at Dean International. [...] Every Aruban student of Dean International has made it into Tiara Air Aruba. [...] The future looks bright here in Aruba."

Rohaan

Rohaan

The [..] staff will all work diligently to help you finish your certificates as safely and efficiently as possible.

More...
Rohaan's Success Story
close

After receiving very hard times from other flight schools [...], I came to Dean International where Robert Dean personally sat down with me and gave me a financial and chronological look into how much remained to finish my private pilot certificate. Through his hard efforts as an instructor and mentor, I was able to finish my private pilot certificate within one week.

Welcome to Dean International

In over two decades, Dean International has educated over 7,000 pilots from all over the world, including over 1,000 students from India alone. By offering a great training experience, a friendly service staff, an ample variety of aircraft, and by improving constantly, we have become one of the largest, most prestigious FAA 141-approved flight schools in North America. Located in Miami, Florida, USA, our flight school offers an ideal location for year-round, "learn to fly" weather, flight training. Dean International is not only well-equipped to provide services to professional trainees but also caters to General Aviation renters. Visit or contact our headquarters at Kendall-Tamiami Executive Airport located in Miami, FL today to learn more about us, or simply read more about our programs if you are an international student interested in joining our school.

Local Airport Information
TAF FOR KTMB (Issued: Wed, November 26th 2014 9:09 AM UTC)
TAF
      AMD KTMB 260906Z 2609/2706 20005KT P6SM VCSH BKN010
      FM261100 16005KT P6SM VCTS SCT003 BKN015 BKN025CB
      FM261500 32013KT P6SM VCSH OVC050
     
METAR FOR KTMB (Issued: Wed, November 26th 2014 10:53 AM UTC):
KTMB 261053Z AUTO 19005KT 10SM FEW055 FEW070 25/24 A2996 RMK AO2 SLP143 T02500239

This weather information is provided by the National Weather Service.
It is automatically refreshed every three minutes.
TAF FOR KHST (Issued: Wed, November 26th 2014 10:27 AM UTC)
TAF
      AMD KHST 2610/2714 22009KT 9999 VCSH SCT008 OVC100 QNH2989INS
      TEMPO 2610/2613 BKN008
      BECMG 2614/2615 27012KT 9999 NSW SCT020 BKN100 QNH3000INS
      BECMG 2620/2621 33009KT 9999 FEW100 QNH3005INS TX25/2610Z TN15/2708Z
      AMD 261023
     
METAR FOR KHST (Issued: Wed, November 26th 2014 9:58 AM UTC):
KHST 260958Z AUTO 18006KT 10SM CLR 25/24 A2994 RMK AO2 SLP142 T02530243 $

This weather information is provided by the National Weather Service.
It is automatically refreshed every three minutes.
TAF FOR KOPF (Issued: Wed, November 26th 2014 9:09 AM UTC)
TAF
      AMD KOPF 260906Z 2609/2706 19009KT P6SM VCSH BKN012
      FM261100 17010KT P6SM VCTS SCT005 BKN015 BKN025CB
      FM261500 32013KT P6SM VCSH OVC050
     
METAR FOR KOPF (Issued: Wed, November 26th 2014 10:53 AM UTC):
KOPF 261053Z AUTO 20009KT 10SM CLR 26/24 A2995 RMK AO2 SLP143 T02560239

This weather information is provided by the National Weather Service.
It is automatically refreshed every three minutes.
TAF FOR KMIA (Issued: Wed, November 26th 2014 9:12 AM UTC)
TAF
      AMD KMIA 260906Z 2609/2706 20007KT P6SM VCSH BKN010
      FM261100 17010KT P6SM VCTS SCT005 BKN015 BKN025CB
      FM261500 32013KT P6SM VCSH OVC050
     
METAR FOR KMIA (Issued: Wed, November 26th 2014 10:53 AM UTC):
KMIA 261053Z 19008KT 6SM BR FEW010 SCT055 26/24 A2995 RMK AO2 SLP143 T02560239 $

This weather information is provided by the National Weather Service.
It is automatically refreshed every three minutes.
Design by Ariel Llizo
© Dean International Inc. 2012